| time (UTC) | temp C | wind direction | speed KPH | gust KPH | rain 1hr cm | rain 24hr cm | rain mn cm | humidity % | barometer mb |
| 20260508102000 | 21 | 146 | 1.6 | 17.7 | 0.00 | 0.00 | 0.00 | 37 | 1021.0 |
| 20260508101000 | 20 | 0 | 0.0 | 0.0 | 0.00 | 0.00 | 0.00 | 39 | 1021.0 |
| 20260508100000 | 20 | 59 | 3.2 | 11.3 | 0.00 | 0.00 | 0.00 | 38 | 1021.0 |
| 20260508095000 | 20 | 122 | 6.4 | 9.7 | 0.00 | 0.00 | 0.00 | 37 | 1021.0 |
| 20260508094000 | 20 | 164 | 4.8 | 8.0 | 0.00 | 0.00 | 0.00 | 39 | 1021.0 |
| 20260508093000 | 20 | 175 | 6.4 | 16.1 | 0.00 | 0.00 | 0.00 | 38 | 1021.0 |
| 20260508092000 | 20 | 246 | 3.2 | 9.7 | 0.00 | 0.00 | 0.00 | 38 | 1021.0 |
| 20260508091000 | 20 | 262 | 6.4 | 12.9 | 0.00 | 0.00 | 0.00 | 38 | 1021.0 |
| 20260508090000 | 19 | 269 | 6.4 | 8.0 | 0.00 | 0.00 | 0.00 | 41 | 1021.0 |
| 20260508085000 | 20 | 241 | 3.2 | 9.7 | 0.00 | 0.00 | 0.00 | 42 | 1021.0 |
| 20260508084000 | 20 | 188 | 1.6 | 6.4 | 0.00 | 0.00 | 0.00 | 42 | 1021.0 |
| 20260508083000 | 20 | 207 | 1.6 | 8.0 | 0.00 | 0.00 | 0.00 | 44 | 1021.0 |
| 20260508082000 | 19 | 143 | 3.2 | 6.4 | 0.00 | 0.00 | 0.00 | 46 | 1021.0 |
| 20260508081000 | 19 | 238 | 1.6 | 6.4 | 0.00 | 0.00 | 0.00 | 45 | 1021.0 |
| 20260508080000 | 20 | 24 | 3.2 | 4.8 | 0.00 | 0.00 | 0.00 | 45 | 1021.0 |
| 20260508075000 | 19 | 237 | 3.2 | 9.7 | 0.00 | 0.00 | 0.00 | 45 | 1021.0 |
| 20260508074000 | 20 | 287 | 4.8 | 8.0 | 0.00 | 0.00 | 0.00 | 44 | 1021.0 |
| 20260508073000 | 20 | 108 | 3.2 | 8.0 | 0.00 | 0.00 | 0.00 | 43 | 1021.0 |
| 20260508072000 | 20 | 346 | 1.6 | 6.4 | 0.00 | 0.00 | 0.00 | 45 | 1021.0 |
| 20260508071000 | 18 | 4 | 4.8 | 9.7 | 0.00 | 0.00 | 0.00 | 44 | 1021.0 |
| 20260508070000 | 18 | 269 | 3.2 | 6.4 | 0.00 | 0.00 | 0.00 | 47 | 1021.0 |
| 20260508065000 | 18 | 226 | 3.2 | 4.8 | 0.00 | 0.00 | 0.00 | 48 | 1021.0 |
| 20260508064000 | 17 | 247 | 1.6 | 6.4 | 0.00 | 0.00 | 0.00 | 48 | 1021.0 |
| 20260508063000 | 17 | 247 | 3.2 | 4.8 | 0.00 | 0.00 | 0.00 | 52 | 1021.0 |
| 20260508062000 | 17 | 287 | 4.8 | 8.0 | 0.00 | 0.00 | 0.00 | 51 | 1021.0 |
| 20260508061000 | 17 | 289 | 3.2 | 8.0 | 0.00 | 0.00 | 0.00 | 53 | 1021.0 |
| 20260508060001 | 17 | 275 | 6.4 | 8.0 | 0.00 | 0.00 | 0.00 | 55 | 1021.0 |
| 20260508055000 | 16 | 320 | 6.4 | 9.7 | 0.00 | 0.00 | 0.00 | 56 | 1021.0 |
| 20260508054000 | 15 | 256 | 4.8 | 6.4 | 0.00 | 0.00 | 0.00 | 59 | 1021.0 |
| 20260508053000 | 13 | 255 | 0.0 | 3.2 | 0.00 | 0.00 | 0.00 | 67 | 1021.0 |
| 20260508052000 | 12 | 315 | 0.0 | 3.2 | 0.00 | 0.00 | 0.00 | 70 | 1021.0 |
| 20260508051000 | 11 | 322 | 0.0 | 3.2 | 0.00 | 0.00 | 0.00 | 73 | 1021.0 |
| 20260508050000 | 10 | 343 | 0.0 | 3.2 | 0.00 | 0.00 | 0.00 | 75 | 1021.0 |
| 20260508045000 | 9 | 344 | 1.6 | 3.2 | 0.00 | 0.00 | 0.00 | 78 | 1021.0 |
| 20260508044000 | 8 | 346 | 0.0 | 3.2 | 0.00 | 0.00 | 0.00 | 79 | 1021.0 |
| 20260508043000 | 8 | 346 | 0.0 | 1.6 | 0.00 | 0.00 | 0.00 | 80 | 1021.0 |
| 20260508042000 | 7 | 346 | 0.0 | 0.0 | 0.00 | 0.00 | 0.00 | 81 | 1021.0 |
| 20260508041000 | 7 | 347 | 0.0 | 1.6 | 0.00 | 0.00 | 0.00 | 81 | 1021.0 |
| 20260508040000 | 7 | 346 | 1.6 | 3.2 | 0.00 | 0.00 | 0.00 | 81 | 1021.0 |
| 20260508035000 | 6 | 348 | 0.0 | 0.0 | 0.00 | 0.00 | 0.00 | 81 | 1021.0 |
| 20260508034000 | 6 | 8 | 0.0 | 0.0 | 0.00 | 0.00 | 0.00 | 80 | 1021.0 |
| 20260508033000 | 6 | 35 | 0.0 | 0.0 | 0.00 | 0.00 | 0.00 | 80 | 1021.0 |
| 20260508032000 | 6 | 24 | 1.6 | 1.6 | 0.00 | 0.00 | 0.00 | 80 | 1021.0 |
| 20260508031000 | 6 | 124 | 0.0 | 1.6 | 0.00 | 0.00 | 0.00 | 80 | 1021.0 |
| 20260508030000 | 6 | 246 | 0.0 | 0.0 | 0.00 | 0.00 | 0.00 | 79 | 1021.0 |
| 20260508025000 | 6 | 195 | 0.0 | 3.2 | 0.00 | 0.00 | 0.00 | 79 | 1021.0 |
| 20260508024000 | 6 | 22 | 4.8 | 6.4 | 0.00 | 0.00 | 0.00 | 79 | 1021.0 |
| 20260508023000 | 6 | 356 | 0.0 | 1.6 | 0.00 | 0.00 | 0.00 | 78 | 1021.0 |
| 20260508022000 | 6 | 208 | 0.0 | 0.0 | 0.00 | 0.00 | 0.00 | 79 | 1021.0 |
| 20260508021000 | 6 | 192 | 0.0 | 0.0 | 0.00 | 0.00 | 0.00 | 78 | 1021.0 |
| 20260508020000 | 7 | 1 | 0.0 | 0.0 | 0.00 | 0.00 | 0.00 | 78 | 1021.0 |
| 20260508015000 | 7 | 227 | 0.0 | 0.0 | 0.00 | 0.00 | 0.00 | 78 | 1021.0 |
| 20260508014000 | 7 | 176 | 0.0 | 1.6 | 0.00 | 0.00 | 0.00 | 78 | 1021.0 |
| 20260508013000 | 7 | 153 | 1.6 | 3.2 | 0.00 | 0.00 | 0.00 | 78 | 1021.0 |
| 20260508012000 | 7 | 328 | 0.0 | 0.0 | 0.00 | 0.00 | 0.00 | 78 | 1021.0 |
| 20260508011000 | 7 | 331 | 0.0 | 3.2 | 0.00 | 0.00 | 0.00 | 77 | 1021.0 |
| 20260508010000 | 7 | 200 | 0.0 | 1.6 | 0.00 | 0.00 | 0.00 | 77 | 1021.0 |
| 20260508005000 | 7 | 195 | 0.0 | 4.8 | 0.00 | 0.00 | 0.00 | 77 | 1021.0 |
| 20260508004000 | 7 | 27 | 1.6 | 3.2 | 0.00 | 0.00 | 0.00 | 77 | 1021.0 |
| 20260508003000 | 7 | 331 | 1.6 | 3.2 | 0.00 | 0.00 | 0.00 | 76 | 1021.0 |
| 20260508002000 | 7 | 328 | 0.0 | 0.0 | 0.00 | 0.00 | 0.00 | 76 | 1021.0 |
| 20260508001000 | 7 | 11 | 3.2 | 3.2 | 0.00 | 0.00 | 0.00 | 76 | 1021.0 |
| 20260508000000 | 7 | 188 | 0.0 | 0.0 | 0.00 | 0.00 | 0.00 | 76 | 1021.0 |
| 20260507235000 | 8 | 196 | 0.0 | 0.0 | 0.00 | 0.00 | 0.00 | 76 | 1021.0 |
| 20260507234000 | 8 | 247 | 0.0 | 0.0 | 0.00 | 0.00 | 0.00 | 75 | 1021.0 |
| 20260507233000 | 8 | 25 | 1.6 | 1.6 | 0.00 | 0.00 | 0.00 | 75 | 1021.0 |
| 20260507232000 | 8 | 21 | 3.2 | 6.4 | 0.00 | 0.00 | 0.00 | 75 | 1021.0 |
| 20260507231000 | 8 | 339 | 3.2 | 4.8 | 0.00 | 0.00 | 0.00 | 75 | 1021.0 |
| 20260507230000 | 8 | 319 | 0.0 | 3.2 | 0.00 | 0.00 | 0.00 | 75 | 1021.0 |
| 20260507225000 | 8 | 328 | 1.6 | 1.6 | 0.00 | 0.00 | 0.00 | 75 | 1021.0 |
| 20260507224001 | 8 | 28 | 3.2 | 3.2 | 0.00 | 0.00 | 0.00 | 74 | 1021.0 |
| 20260507223000 | 8 | 247 | 0.0 | 0.0 | 0.00 | 0.00 | 0.00 | 75 | 1021.0 |
| 20260507222000 | 8 | 167 | 0.0 | 3.2 | 0.00 | 0.00 | 0.00 | 73 | 1021.0 |
| 20260507221000 | 8 | 354 | 3.2 | 4.8 | 0.00 | 0.00 | 0.00 | 72 | 1021.0 |
| 20260507220000 | 8 | 103 | 0.0 | 3.2 | 0.00 | 0.00 | 0.00 | 72 | 1021.0 |
| 20260507215000 | 8 | 214 | 0.0 | 4.8 | 0.00 | 0.00 | 0.00 | 71 | 1021.0 |
| 20260507214000 | 9 | 348 | 1.6 | 6.4 | 0.00 | 0.00 | 0.00 | 70 | 1021.0 |
| 20260507213000 | 9 | 145 | 0.0 | 1.6 | 0.00 | 0.00 | 0.00 | 70 | 1021.0 |
| 20260507212000 | 9 | 174 | 0.0 | 1.6 | 0.00 | 0.00 | 0.00 | 70 | 1021.0 |
| 20260507211000 | 10 | 57 | 0.0 | 1.6 | 0.00 | 0.00 | 0.00 | 68 | 1021.0 |
| 20260507210000 | 10 | 22 | 1.6 | 3.2 | 0.00 | 0.00 | 0.00 | 68 | 1021.0 |
| 20260507205000 | 10 | 297 | 3.2 | 6.4 | 0.00 | 0.00 | 0.00 | 69 | 1021.0 |
| 20260507204000 | 10 | 185 | 0.0 | 3.2 | 0.00 | 0.00 | 0.00 | 69 | 1021.0 |
| 20260507203000 | 10 | 176 | 0.0 | 3.2 | 0.00 | 0.00 | 0.00 | 69 | 1021.0 |
| 20260507202000 | 10 | 66 | 3.2 | 6.4 | 0.00 | 0.00 | 0.00 | 69 | 1021.0 |
| 20260507201000 | 10 | 16 | 3.2 | 3.2 | 0.00 | 0.00 | 0.00 | 69 | 1021.0 |
| 20260507200000 | 10 | 111 | 0.0 | 1.6 | 0.00 | 0.00 | 0.00 | 68 | 1021.0 |
| 20260507195000 | 10 | 190 | 0.0 | 0.0 | 0.00 | 0.00 | 0.00 | 68 | 1021.0 |
| 20260507194000 | 10 | 18 | 0.0 | 3.2 | 0.00 | 0.00 | 0.00 | 67 | 1021.0 |
| 20260507193000 | 10 | 112 | 0.0 | 1.6 | 0.00 | 0.00 | 0.00 | 66 | 1021.0 |
| 20260507192000 | 10 | 159 | 1.6 | 3.2 | 0.00 | 0.00 | 0.00 | 66 | 1021.0 |
| 20260507191000 | 10 | 271 | 4.8 | 6.4 | 0.00 | 0.00 | 0.00 | 64 | 1021.0 |
| 20260507190002 | 11 | 0 | 0.0 | 0.0 | 0.00 | 0.00 | 0.00 | 66 | 1021.0 |
| 20260507185000 | 11 | 0 | 0.0 | 0.0 | 0.00 | 0.00 | 0.00 | 63 | 1021.0 |
| 20260507184000 | 11 | 0 | 0.0 | 0.0 | 0.00 | 0.00 | 0.00 | 63 | 1021.0 |
| 20260507183000 | 11 | 0 | 0.0 | 0.0 | 0.00 | 0.00 | 0.00 | 62 | 1021.0 |
| 20260507182000 | 12 | 0 | 0.0 | 0.0 | 0.00 | 0.00 | 0.00 | 62 | 1021.0 |
| 20260507181000 | 12 | 0 | 0.0 | 0.0 | 0.00 | 0.00 | 0.00 | 61 | 1021.0 |
| 20260507180000 | 12 | 0 | 0.0 | 0.0 | 0.00 | 0.00 | 0.00 | 60 | 1021.0 |
| 20260507175000 | 12 | 0 | 0.0 | 0.0 | 0.00 | 0.00 | 0.00 | 59 | 1021.0 |
| 20260507174000 | 13 | 238 | 0.0 | 0.0 | 0.00 | 0.00 | 0.00 | 57 | 1021.0 |
| 20260507173000 | 13 | 214 | 0.0 | 1.6 | 0.00 | 0.00 | 0.00 | 55 | 1021.0 |
| 20260507172000 | 13 | 160 | 3.2 | 6.4 | 0.00 | 0.00 | 0.00 | 54 | 1021.0 |
| 20260507171000 | 14 | 156 | 1.6 | 4.8 | 0.00 | 0.00 | 0.00 | 52 | 1021.0 |
| 20260507170000 | 14 | 170 | 1.6 | 4.8 | 0.00 | 0.00 | 0.00 | 51 | 1021.0 |
| 20260507165000 | 15 | 182 | 0.0 | 3.2 | 0.00 | 0.00 | 0.00 | 50 | 1021.0 |
| 20260507164000 | 15 | 183 | 0.0 | 3.2 | 0.00 | 0.00 | 0.00 | 48 | 1021.0 |
| 20260507163000 | 15 | 225 | 3.2 | 6.4 | 0.00 | 0.00 | 0.00 | 47 | 1021.0 |
| 20260507162000 | 16 | 187 | 1.6 | 4.8 | 0.00 | 0.00 | 0.00 | 46 | 1021.0 |
| 20260507161000 | 16 | 208 | 0.0 | 9.7 | 0.00 | 0.00 | 0.00 | 44 | 1021.0 |
| 20260507160000 | 16 | 175 | 1.6 | 6.4 | 0.00 | 0.00 | 0.00 | 42 | 1021.0 |
| 20260507155000 | 17 | 183 | 3.2 | 6.4 | 0.00 | 0.00 | 0.00 | 41 | 1021.0 |
| 20260507154000 | 17 | 182 | 3.2 | 9.7 | 0.00 | 0.00 | 0.00 | 40 | 1021.0 |
| 20260507153000 | 17 | 208 | 6.4 | 11.3 | 0.00 | 0.00 | 0.00 | 40 | 1021.0 |
| 20260507152000 | 17 | 225 | 6.4 | 9.7 | 0.00 | 0.00 | 0.00 | 39 | 1021.0 |
| 20260507151000 | 17 | 171 | 3.2 | 8.0 | 0.00 | 0.00 | 0.00 | 40 | 1021.0 |
| 20260507150000 | 17 | 247 | 0.0 | 11.3 | 0.00 | 0.00 | 0.00 | 39 | 1021.0 |
| 20260507145000 | 17 | 212 | 3.2 | 11.3 | 0.00 | 0.00 | 0.00 | 38 | 1021.0 |
| 20260507144000 | 17 | 193 | 6.4 | 9.7 | 0.00 | 0.00 | 0.00 | 37 | 1021.0 |
| 20260507143000 | 18 | 171 | 4.8 | 6.4 | 0.00 | 0.00 | 0.00 | 36 | 1021.0 |
| 20260507142000 | 18 | 99 | 6.4 | 9.7 | 0.00 | 0.00 | 0.00 | 38 | 1021.0 |
| 20260507141000 | 18 | 176 | 3.2 | 9.7 | 0.00 | 0.00 | 0.00 | 37 | 1021.0 |
| 20260507140000 | 18 | 210 | 4.8 | 8.0 | 0.00 | 0.00 | 0.00 | 36 | 1021.0 |
| 20260507135000 | 19 | 195 | 1.6 | 11.3 | 0.00 | 0.00 | 0.00 | 35 | 1021.0 |
| 20260507134000 | 19 | 207 | 3.2 | 12.9 | 0.00 | 0.00 | 0.00 | 37 | 1021.0 |
| 20260507133000 | 19 | 112 | 6.4 | 19.3 | 0.00 | 0.00 | 0.00 | 35 | 1021.0 |
| 20260507132000 | 19 | 155 | 3.2 | 14.5 | 0.00 | 0.00 | 0.00 | 33 | 1021.0 |
| 20260507131000 | 19 | 76 | 6.4 | 14.5 | 0.00 | 0.00 | 0.00 | 36 | 1021.0 |
| 20260507130000 | 19 | 142 | 8.0 | 11.3 | 0.00 | 0.00 | 0.00 | 36 | 1021.0 |
| 20260507125000 | 19 | 171 | 6.4 | 19.3 | 0.00 | 0.00 | 0.00 | 37 | 1021.0 |
| 20260507124000 | 19 | 162 | 6.4 | 8.0 | 0.00 | 0.00 | 0.00 | 37 | 1021.0 |
| 20260507123000 | 18 | 149 | 8.0 | 14.5 | 0.00 | 0.00 | 0.00 | 37 | 1021.0 |
| 20260507122000 | 18 | 173 | 3.2 | 9.7 | 0.00 | 0.00 | 0.00 | 39 | 1021.0 |
| 20260507121000 | 18 | 222 | 4.8 | 14.5 | 0.00 | 0.00 | 0.00 | 41 | 1021.0 |
| 20260507120000 | 18 | 103 | 9.7 | 17.7 | 0.00 | 0.00 | 0.00 | 38 | 1021.0 |
| 20260507115000 | 18 | 164 | 3.2 | 16.1 | 0.00 | 0.00 | 0.00 | 36 | 1021.0 |
| 20260507114623 | 18 | 158 | 9.7 | 16.1 | 0.00 | 0.00 | 0.00 | 36 | 1021.0 |
| 20260507114000 | 18 | 188 | 6.4 | 12.9 | 0.00 | 0.00 | 0.00 | 36 | 1021.0 |
| 20260507113000 | 18 | 0 | 0.0 | 0.0 | 0.00 | 0.00 | 0.00 | 38 | 1021.0 |
| 20260507112000 | 18 | 211 | 3.2 | 11.3 | 0.00 | 0.00 | 0.00 | 39 | 1021.0 |
| 20260507111000 | 18 | 242 | 4.8 | 9.7 | 0.00 | 0.00 | 0.00 | 42 | 1021.0 |
| 20260507110000 | 17 | 71 | 3.2 | 14.5 | 0.00 | 0.00 | 0.00 | 42 | 1021.0 |
| 20260507105000 | 18 | 192 | 3.2 | 9.7 | 0.00 | 0.00 | 0.00 | 41 | 1021.0 |
| 20260507104000 | 17 | 161 | 3.2 | 8.0 | 0.00 | 0.00 | 0.00 | 43 | 1021.0 |
| 20260507103000 | 17 | 193 | 4.8 | 6.4 | 0.00 | 0.00 | 0.00 | 40 | 1021.0 |